Sarasota, FL

10:37 AM EDT on October 15, 2019 (GMT -0400)
Sarasota-bradenton

Weather History for KSRQ - August, 2019

Change the Weather History Date:

Saturday, August 17, 2019

  Actual Average Record
Temperature  
Mean Temperature 77 °F 82 °F  
Max Temperature 82 °F 90 °F 97 °F (1973)
Min Temperature 72 °F 74 °F 67 °F (1927)
Degree Days  
Heating Degree Days 0 0  
Month to date heating degree days 0 0  
Since 1 June heating degree days 0 0  
Since 1 July heating degree days 0 0  
Cooling Degree Days 12 17  
Month to date cooling degree days 307 289  
Year to date cooling degree days 2578 2051  
Since 1 June cooling degree days 1421 1300  
Growing Degree Days 27 (Base 50)    
Moisture  
Dew Point 74 °F    
Average Humidity 89    
Maximum Humidity 100    
Minimum Humidity 74    
Precipitation  
Precipitation 0.56 in 0.31 in 4.00 in (1922)
Month to date precipitation 10.38 4.95  
Year to date precipitation 38.91 34.14  
Sea Level Pressure  
Sea Level Pressure 30.06 in    
Wind  
Wind Speed 5 mph (SSE)    
Max Wind Speed 24 mph    
Max Gust Speed 33 mph    
Visibility 9 miles    
Events Rain    
T = Trace of Precipitation, MM = Missing Value Source: NWS Daily Summary

Daily Weather History Graph

Daily Weather History Graph

Search for Another Location

Airport or City:

Astronomy

Aug. 17, 2019 Rise Set
Actual Time 7:02 AM EDT 8:06 PM EDT
Civil Twilight 6:37 AM EDT 8:30 PM EDT
Nautical Twilight 6:08 AM EDT 8:59 PM EDT
Astronomical Twilight 5:39 AM EDT 9:28 PM EDT
Moon 9:42 PM EDT (8/17) 8:43 AM EDT (8/17)
Length of Visible Light 13h 52m
Length of Day
13h 04m
Waning Gibbous, 96% of the Moon is Illuminated
Aug 17
Waning Gibbous
Aug 23
Last Quarter
Aug 30
New
Sep 5
First Quarter
Sep 14
Full

Hourly Weather History & Observations

Time (EDT) Temp. Heat Index Dew Point Humidity Pressure Visibility Wind Dir Wind Speed Gust Speed Precip Events Conditions
12:53 AM 75.9 °F - 73.9 °F 94% 30.06 in 10.0 mi SE 4.6 mph - N/A   Clear
1:53 AM 77.0 °F - 75.0 °F 94% 30.06 in 10.0 mi Calm Calm - N/A   Partly Cloudy
2:53 AM 75.9 °F - 75.0 °F 97% 30.03 in 10.0 mi SE 5.8 mph - N/A   Clear
3:53 AM 75.9 °F - 73.9 °F 94% 30.02 in 10.0 mi SE 5.8 mph - N/A   Clear
4:53 AM 77.0 °F - 73.9 °F 90% 30.00 in 10.0 mi SSE 6.9 mph - N/A   Clear
5:53 AM 77.0 °F - 73.9 °F 90% 29.99 in 10.0 mi Calm Calm - 0.00 in   Clear
6:53 AM 78.1 °F - 75.0 °F 90% 30.03 in 10.0 mi North 6.9 mph - N/A   Scattered Clouds
7:53 AM 78.1 °F - 75.0 °F 90% 30.05 in 10.0 mi East 3.5 mph - N/A   Clear
8:53 AM 78.1 °F - 75.9 °F 93% 30.06 in 10.0 mi East 5.8 mph - 0.00 in   Overcast
9:13 AM 78.1 °F - 75.9 °F 93% 30.05 in 10.0 mi East 6.9 mph - 0.00 in Rain Light Rain
9:53 AM 80.1 °F 85.1 °F 75.0 °F 85% 30.07 in 10.0 mi SE 6.9 mph - 0.00 in Rain Light Rain
10:05 AM 73.9 °F - 71.1 °F 91% 30.09 in 1.0 mi West 17.3 mph 32.2 mph 0.09 in Rain Heavy Rain
10:17 AM 72.0 °F - 70.0 °F 93% 30.10 in 1.0 mi West 15.0 mph - 0.15 in Rain Heavy Rain
10:53 AM 75.9 °F - 73.0 °F 91% 30.11 in 4.0 mi WSW 10.4 mph - 0.27 in Rain Light Rain
11:53 AM 77.0 °F - 73.0 °F 88% 30.10 in 8.0 mi SSW 10.4 mph - 0.05 in Rain Light Rain
12:53 PM 77.0 °F - 73.9 °F 90% 30.11 in 6.0 mi SSW 8.1 mph - 0.08 in Rain Rain
1:53 PM 77.0 °F - 75.0 °F 94% 30.09 in 6.0 mi SSW 6.9 mph - 0.14 in Rain Rain
2:53 PM 80.1 °F 85.1 °F 75.0 °F 85% 30.07 in 10.0 mi WSW 8.1 mph - 0.02 in Rain Light Rain
3:53 PM 80.1 °F 84.5 °F 73.9 °F 81% 30.03 in 10.0 mi West 5.8 mph - 0.00 in   Clear
4:53 PM 81.0 °F 85.8 °F 73.0 °F 77% 30.04 in 10.0 mi Calm Calm - N/A   Clear
5:53 PM 82.0 °F 87.4 °F 73.0 °F 74% 30.04 in 10.0 mi Calm Calm - N/A   Clear
6:53 PM 82.0 °F 87.4 °F 73.0 °F 74% 30.05 in 10.0 mi South 4.6 mph - N/A   Partly Cloudy
7:53 PM 81.0 °F 86.7 °F 75.0 °F 82% 30.04 in 10.0 mi Calm Calm - N/A   Clear
8:53 PM 79.0 °F - 75.0 °F 88% 30.04 in 10.0 mi ESE 4.6 mph - N/A   Clear
9:53 PM 79.0 °F - 75.9 °F 90% 30.06 in 10.0 mi Calm Calm - N/A   Clear
10:53 PM 78.1 °F - 75.0 °F 90% 30.08 in 10.0 mi SSE 5.8 mph - N/A   Clear
11:53 PM 78.1 °F - 75.9 °F 93% 30.07 in 10.0 mi SE 5.8 mph - N/A   Clear